User: anonymous   Login
Location: Asheville, NC
(35.6000°N, 82.5500°W)
Time: 23:09:20
(UTC-04:00)
Language:

FO-29 - Orbit

View from above orbital plane
View from above orbital plane
View from above satellite
View from above satellite

Ground track
Ground track

The orbit data is extracted from the following two-line orbital elements,

1 24278U 96046B   18262.43438095 -.00000003 +00000-0 +34805-4 0  9991
2 24278 098.5153 088.1993 0349641 226.2588 130.9115 13.53085834090980
Epoch (UTC): 19 September 2018 10:25:30
Eccentricity: 0.0349641
inclination: 98.5153°
perigee height: 801 km
apogee height: 1321 km
right ascension of ascending node: 88.1993°
argument of perigee: 226.2588°
revolutions per day: 13.53085834
mean anomaly at epoch: 130.9115°
orbit number at epoch: 9098

The dashed part of the orbit path shows where the satellite is in the earth's shadow,  

DLR